Flight Track Log - Related Links

Times and Time Zones

All times are in EDT time to prevent confusion due to time zone crossing. See the N70MN flight status page for this flight to view local times or setup timezone preferences in your user account.

Time Position Orientation Groundspeed Altitude Reporting Facility
EDT Latitude Longitude Course Direction KTS MPH feet Rate Location/Type
Mon 09:41:26 AM 44.9167 -93.0167 North 163 188 2,000  Level Minneapolis TRACON
Mon 09:43:00 AM 44.9647 -93.1247 302° West  Level FlightAware Approximate
Mon 09:44:00 AM 45.0139 -93.0089 302° West 139 160 7,400  Level Minneapolis Center
Mon 09:45:02 AM 45.0431 -93.0492 316° Northwest 150 173 9,400 1,210 Climbing Minneapolis Center
Mon 09:46:04 AM 45.0806 -93.1222 306° West 205 236 9,900 242 Climbing Minneapolis Center
Mon 09:47:06 AM 45.1153 -93.1942 304° West 222 255 9,900  Level Minneapolis Center
Mon 09:48:07 AM 45.1514 -93.2647 306° West 223 257 9,900  Level Minneapolis Center
Mon 09:49:09 AM 45.1883 -93.3317 308° West 217 250 9,900 97 Level Minneapolis Center
Mon 09:50:11 AM 45.2239 -93.3953 308° West 208 239 10,100 774 Climbing Minneapolis Center
Mon 09:51:13 AM 45.2478 -93.4572 299° West 182 209 11,500 871 Climbing Minneapolis Center
Mon 09:52:15 AM 45.2881 -93.5247 310° West 198 228 11,900 629 Climbing Minneapolis Center
Mon 09:53:17 AM 45.3172 -93.5931 301° West 202 232 12,800 1,161 Climbing Minneapolis Center
Mon 09:54:19 AM 45.3397 -93.6542 298° West 177 204 14,300 1,355 Climbing Minneapolis Center
Mon 09:55:21 AM 45.3581 -93.7153 293° West 170 196 15,600 774 Climbing Minneapolis Center
Mon 09:56:23 AM 45.3714 -93.7850 285° West 182 209 15,900 145 Climbing Minneapolis Center
Mon 09:57:25 AM 45.3894 -93.8647 288° West 210 242 15,900 484 Level Minneapolis Center
Mon 09:58:27 AM 45.4211 -93.9439 300° West 190 219 16,900 484 Climbing Minneapolis Center
Mon 09:59:29 AM 45.4600 -94.0056 312° West 205 236 16,900  Level Minneapolis Center
Mon 10:00:31 AM 45.4997 -94.0681 312° West 213 245 16,900  Level Minneapolis Center
Mon 10:01:33 AM 45.5247 -94.1456 295° West 215 247 16,900  Level Minneapolis Center
Mon 10:02:35 AM 45.5467 -94.2047 298° West 213 245 16,900  Level Minneapolis Center
Mon 10:03:37 AM 45.5811 -94.2950 299° West 214 246 16,900 -290 Level Minneapolis Center
Mon 10:04:39 AM 45.6172 -94.3864 299° West 218 251 16,300 -484 Descending Minneapolis Center
Mon 10:05:41 AM 45.6478 -94.4669 299° West 227 261 15,900 -194 Descending Minneapolis Center
Mon 10:06:43 AM 45.6775 -94.5436 299° West 224 258 15,900  Level Minneapolis Center
Mon 10:07:45 AM 45.7058 -94.6186 298° West 217 250 15,900 -145 Level Minneapolis Center
Mon 10:08:47 AM 45.7344 -94.6928 299° West 215 247 15,600 -618 Descending Minneapolis Center
Mon 10:10:01 AM 45.7728 -94.7889 300° West 228 262 14,500 -964 Descending Minneapolis Center
Mon 10:11:04 AM 45.8106 -94.8861 299° West 233 268 13,400 -1,008 Descending Minneapolis Center
Mon 10:12:06 AM 45.8394 -94.9647 298° West 227 261 12,400 -968 Descending Minneapolis Center
Mon 10:13:08 AM 45.8692 -95.0458 298° West 221 254 11,400 -774 Descending Minneapolis Center
Mon 10:14:10 AM 45.8925 -95.1072 299° West 220 253 10,800 -726 Descending Minneapolis Center
Mon 10:15:12 AM 45.9294 -95.1939 302° West 216 249 9,900 -823 Descending Minneapolis Center
Mon 10:16:14 AM 45.9706 -95.2569 313° West 215 247 9,100 -871 Descending Minneapolis Center
Mon 10:17:16 AM 46.0161 -95.3356 310° West 214 246 8,100 -823 Descending Minneapolis Center
Mon 10:18:18 AM 46.0481 -95.4100 302° West 217 250 7,400 -774 Descending Minneapolis Center
Mon 10:19:20 AM 46.0706 -95.4906 292° West 217 250 6,500 -774 Descending Minneapolis Center
Mon 10:20:22 AM 46.0964 -95.5683 296° West 217 250 5,800 -774 Descending Minneapolis Center
Mon 10:21:24 AM 46.1206 -95.6469 294° West 217 250 4,900 -726 Descending Minneapolis Center
Mon 10:22:26 AM 46.1394 -95.7311 288° West 214 246 4,300 -581 Descending Minneapolis Center

Login

Don't have an account? Register now (free) for customized features, flight alerts, and more!